Home > Weather > Tiruvarur > Past weeks

Flag for India Past Weather in Tiruvarur, Tamil Nadu, India — Yesterday and Last 2 Weeks

Now
81 °F

Broken clouds.


Feels Like: 84 °F
Forecast: 78 / 94 °F
Wind: 7 mph from Northwest

Location: Tiruchchirapalli

Current Time: Jun 26, 2016 at 8:15:59 AM

Latest Report: Jun 26, 2016 at 7:30 AM


Visibility: 3 mi

Pressure: 29.77 "Hg

Humidity: 70%

Dew Point: 70 °F

Location of TiruvarurLocation

Past Weather in Tiruvarur — Graph

°F

Tiruvarur Temperature Yesterday

Maximum temperature yesterday: 95 °F (at 1:00 PM)
Minimum temperature yesterday: 79 °F (at 4:00 AM)
Average temperature yesterday: 86 °F

High & Low Weather Summary for the Past Weeks

 TemperatureHumidityPressure
High100 °F (Jun 15, 2:30 PM)94% (Jun 18, 10:30 PM)29.80 "Hg (Jun 18, 10:30 PM)
Low77 °F (Jun 18, 10:30 PM)31% (Jun 15, 4:00 PM)29.56 "Hg (Jun 17, 3:30 PM)
Average87 °F56%29.70 "Hg
* Reported Jun 11 6:30 AM — Jun 26 7:00 AM, Tiruvarur, Weather by CustomWeather, © 2016

Note: Actual official high and low records may vary slightly from our data, if they occured in-between our weather recording intervals... More about our weather records

Advertising

Tiruvarur Weather History for the Previous 24 Hours

Scroll right to see more
 ConditionsComfort  
Time TempWeatherWind HumidityBarometerVisibility
7:00 AM
Sun, Jun 26
79 °FDrizzle. Broken clouds.6 mph74%29.77 "Hg3 mi
6:30 AM79 °FBroken clouds.5 mph74%29.74 "Hg3 mi
6:00 AM79 °FPartly cloudy.3 mph74%29.71 "Hg3 mi
5:30 AM79 °FPartly cloudy.5 mph74%29.71 "Hg3 mi
5:00 AM81 °FPartly cloudy.7 mph70%29.71 "Hg3 mi
4:30 AM81 °FPartly cloudy.7 mph70%29.71 "Hg3 mi
4:00 AM81 °FPartly cloudy.8 mph70%29.71 "Hg3 mi
3:30 AM81 °FPartly cloudy.8 mph70%29.71 "Hg3 mi
3:00 AM82 °FPartly cloudy.8 mph66%29.71 "Hg3 mi
2:30 AM82 °FPartly cloudy.9 mph66%29.71 "Hg3 mi
2:00 AM82 °FPartly cloudy.10 mph62%29.74 "Hg3 mi
1:30 AM82 °FPartly cloudy.10 mph62%29.74 "Hg3 mi
1:00 AM82 °FPartly cloudy.13 mph62%29.74 "Hg3 mi
12:30 AM82 °FPartly cloudy.10 mph62%29.77 "Hg3 mi
12:00 AM82 °FPartly cloudy.10 mph58%29.77 "Hg3 mi
11:30 PM
Sat, Jun 25
84 °FPartly cloudy.12 mph55%29.77 "Hg4 mi
11:00 PM84 °FPartly cloudy.12 mph58%29.77 "Hg4 mi
10:30 PM84 °FPartly cloudy.13 mph58%29.77 "Hg4 mi
10:00 PM84 °FPartly cloudy.14 mph58%29.77 "Hg4 mi
9:30 PM84 °FPartly cloudy.9 mph58%29.77 "Hg4 mi
9:00 PM86 °FPartly cloudy.9 mph55%29.77 "Hg4 mi
8:30 PM86 °FPartly cloudy.9 mph55%29.77 "Hg4 mi
8:00 PM88 °FMostly cloudy.9 mph52%29.74 "Hg4 mi
7:30 PM88 °FMostly cloudy.9 mph52%29.74 "Hg4 mi
7:00 PM90 °FMore clouds than sun.9 mph46%29.71 "Hg4 mi
6:30 PM91 °FMore clouds than sun.9 mph44%29.71 "Hg4 mi
6:00 PM91 °FMore clouds than sun.9 mph44%29.71 "Hg5 mi
5:30 PM91 °FMore clouds than sun.9 mph44%29.68 "Hg5 mi
5:00 PM91 °FBroken clouds.9 mph44%29.68 "HgN/A
4:30 PM93 °FBroken clouds.12 mph41%29.68 "HgN/A
4:00 PM93 °FBroken clouds.9 mph41%29.65 "HgN/A
3:00 PM95 °FBroken clouds.9 mph39%29.65 "HgN/A
2:30 PM95 °FBroken clouds.9 mph39%29.65 "HgN/A
2:00 PM95 °FBroken clouds.9 mph39%29.68 "HgN/A
1:30 PM95 °FBroken clouds.9 mph39%29.68 "HgN/A
1:00 PM95 °FBroken clouds.9 mph39%29.71 "Hg5 mi
12:30 PM93 °FBroken clouds.9 mph41%29.71 "Hg5 mi
12:00 PM93 °FBroken clouds.12 mph44%29.71 "Hg5 mi
11:30 AM91 °FBroken clouds.10 mph44%29.71 "Hg5 mi
11:00 AM90 °FBroken clouds.12 mph49%29.71 "Hg5 mi
10:30 AM88 °FBroken clouds.9 mph49%29.71 "Hg5 mi
10:00 AM86 °FBroken clouds.9 mph55%29.71 "Hg4 mi
9:30 AM84 °FBroken clouds.9 mph58%29.71 "Hg4 mi
9:00 AM84 °FBroken clouds.9 mph58%29.71 "Hg4 mi
8:30 AM82 °FBroken clouds.12 mph62%29.71 "Hg4 mi
8:00 AM82 °FBroken clouds.12 mph62%29.71 "Hg4 mi
Weather by CustomWeather, © 2016

See weather overviewHow to use our weather pages